[[{"header":{"parameterUnit":"m.s-1","parameterCategory":1,"la1":30.2991,"la2":30.254,"lo1":-89.0895,"lo2":-89.0444,"dy":0.0017,"dx":0.0017,"nx":28,"ny":28,"refTime":"2023-08-11T03:00:00:Z","depth":0,"parameterNumber":2,"parameterNumberName":"U-component_of_WINDS"},"data":[0,0,0,0,0,0,0,0,0,0,0,0,0,0,0,0,0,0,0,0,0,0,0,0,0,0,0,0,0,0,0,0,0,0,0,0,0,0,0,0,0,0,0,0,0,0,0,0,0,0,0,0,0,0,0,0,0,0,2.758,2.7581,0,2.7695,2.7697,2.7698,2.7695,2.7694,2.7692,2.7691,2.7817,2.7821,2.7826,0,0,0,0,0,0,0,0,0,0,0,0,0,2.7366,2.737,2.758,2.7581,2.7583,2.7695,2.7697,2.7698,2.7696,2.7694,2.7692,2.769,2.7815,2.7821,2.7827,0,0,0,0,0,0,0,0,0,0,0,0,0,2.7468,2.7371,2.758,2.7595,2.7597,2.7695,2.7697,2.7699,2.7696,2.7694,2.7691,2.7689,2.7813,2.782,2.7827,2.792,0,0,2.785,2.7853,0,0,0,0,0,0,0,0,2.7462,2.7476,2.7591,2.7594,2.7597,2.7678,2.7668,2.7773,2.7697,2.7659,2.7691,2.7688,2.7773,2.7784,2.7811,2.7926,2.7931,2.785,2.7855,2.7858,2.786,0,0,0,0,0,0,0,2.7455,2.7471,2.7626,2.7593,2.7596,2.7599,2.7611,2.7688,2.7728,2.7662,2.7662,2.7675,2.7774,2.7804,2.7814,2.7933,2.785,2.7857,2.7861,2.7864,2.8135,2.8137,0,0,0,0,0,0,2.7444,2.7465,2.7622,2.7629,2.7522,2.7605,2.7618,2.7655,2.7727,2.7736,2.7677,2.7675,2.7792,2.7805,2.7818,2.7934,2.7858,2.7865,2.7869,2.8132,2.8135,2.8138,0,0,0,0,0,0,2.7439,2.7458,2.7618,2.7547,2.7568,2.7611,2.7652,2.7658,2.7688,2.7739,2.7747,2.7699,2.7791,2.7808,2.7895,2.7938,2.7868,2.7874,2.8128,2.8133,2.8137,2.8165,0,0,0,0,0,0,2.7433,2.7456,2.749,2.7548,2.7572,2.769,2.7655,2.7662,2.7699,2.7697,2.7762,2.777,2.779,2.7884,2.7902,2.7947,2.788,2.8125,2.813,2.8135,2.8161,2.817,2.8178,0,0,0,0,0,2.7426,2.7494,2.7491,2.751,2.7614,2.7692,2.7706,2.7726,2.7702,2.7738,2.7772,2.7768,2.793,2.7893,2.7913,2.7961,2.8122,2.8129,2.8135,2.8157,2.8168,2.8178,0,0,0,0,0,0,2.7442,2.7502,2.75,2.7588,2.7635,2.7692,2.7737,2.7737,2.7793,2.7789,2.7814,2.7829,2.7917,2.7947,2.7905,2.8057,2.8024,2.8034,2.8033,2.8045,2.8053,2.8045,2.7886,0,0,0,0,0,2.7455,2.7512,2.7562,2.7636,2.7659,2.7694,2.7729,2.774,2.7791,2.7811,2.7851,2.7902,2.7965,2.8006,2.8067,2.8164,2.8181,2.8208,2.8216,2.8223,2.8233,2.8291,2.8305,2.8159,2.8159,2.8159,0,0,2.7485,2.7525,2.7559,2.764,2.7678,2.7739,2.7711,2.7776,2.7822,2.7822,2.7907,2.7938,2.7997,2.8091,2.8134,2.8119,2.8276,2.8231,2.8236,2.8243,2.8299,2.8313,2.8325,2.8164,2.8163,2.8162,0,0,2.757,2.7604,2.7671,2.7709,2.7765,2.7788,2.7804,2.7861,2.7881,2.7966,2.7968,2.8025,2.8132,2.8175,2.8211,2.8314,2.8315,2.8333,2.8379,2.8436,2.8447,2.8457,2.8498,2.8511,2.8342,2.8343,2.8343,0,2.7601,2.769,2.7706,2.7772,2.7809,2.7809,2.7879,2.7916,2.799,2.8017,2.7999,2.8134,2.8174,2.828,2.8305,2.8333,2.8355,2.8327,2.8443,2.8454,2.8464,2.8503,2.8518,2.8345,2.8344,2.8344,2.8344,0,2.7726,2.7788,2.7836,2.7906,2.7948,2.8015,2.8045,2.8087,2.8094,2.812,2.8209,2.8257,2.8328,2.8353,2.8362,2.8462,2.8451,2.8437,2.8406,2.848,2.8517,2.8532,2.8348,2.8347,2.8346,2.8346,0,0,2.7826,2.7904,2.7922,2.7955,2.8018,2.8068,2.8136,2.8204,2.8241,2.8292,2.8354,2.8444,2.8433,2.8474,2.8487,2.8536,2.8619,2.8517,2.8519,2.8538,2.8736,2.8748,2.8765,2.8619,2.8621,2.8624,2.8732,0,2.7921,2.804,2.8058,2.8165,2.8225,2.8226,2.8287,2.8334,2.836,2.8417,2.8447,2.8512,2.849,2.8516,2.8563,2.8599,2.866,2.8591,2.868,2.8683,2.8668,2.8784,2.8796,2.8896,2.8747,2.8749,2.8751,0,2.8047,2.8101,2.8213,2.827,2.8296,2.8349,2.8414,2.8467,2.8522,2.8538,2.8584,2.8592,2.8667,2.863,2.8736,2.8689,2.8726,2.875,2.8754,2.8766,2.8723,2.8802,2.8928,2.8944,2.8773,2.8771,2.877,0,2.8113,2.8213,2.8294,2.8322,2.8389,2.8428,2.8458,2.851,2.855,2.8608,2.8635,2.8701,2.8738,2.8791,2.8818,2.8788,2.8925,2.8888,2.8944,2.8943,2.8975,2.8973,2.9112,2.8993,2.8993,2.8993,2.8992,0,2.8219,2.8289,2.8325,2.8375,2.8455,2.8475,2.8554,2.8584,2.863,2.8689,2.8694,2.875,2.8781,2.8842,2.8864,2.8951,2.8967,2.8985,2.8991,2.8986,2.8985,2.9014,2.9009,2.8997,2.8996,2.8995,2.8994,0,2.8307,2.8334,2.8423,2.8479,2.8495,2.8551,2.8601,2.8652,2.8677,2.8752,2.8771,2.8812,2.8885,2.8916,2.9006,2.9021,2.9122,2.9121,2.9103,2.9106,2.916,2.9156,2.9326,2.9351,2.9212,2.9213,2.9214,0,2.8374,2.8428,2.849,2.8528,2.8559,2.8621,2.8662,2.8685,2.8728,2.8795,2.8839,2.891,2.8969,2.9086,2.9126,2.9196,2.9199,2.9253,2.921,2.9205,2.9204,2.9202,2.9209,2.9263,2.9264,2.9265,2.9266,0,2.8492,2.8503,2.856,2.8623,2.8671,2.8723,2.8773,2.8805,2.8836,2.8885,2.8958,2.9003,2.9094,2.9168,2.924,2.9274,2.9278,2.9279,2.9296,2.9294,2.9283,2.9293,2.9128,2.9276,2.9275,2.9274,2.9274,2.9273,2.8575,2.8623,2.8675,2.874,2.8779,2.8826,2.8877,2.8909,2.8969,2.9044,2.9054,2.9133,2.919,2.9286,2.9324,2.9388,2.9375,2.9399,2.9406,2.9412,2.9418,2.9269,2.9401,2.9401,2.9401,2.9401,2.94,0,2.8696,2.8729,2.8788,2.8857,2.8909,2.8903,2.8959,2.9004,2.9073,2.9123,2.9181,2.9267,2.9337,2.9383,2.9456,2.9499,2.9503,2.9518,2.9517,2.9526,2.9423,2.9403,2.9514,2.9514,2.9514,2.9514,2.9514,2.9514,2.8765,2.8848,2.8865,2.897,2.9003,2.9078,2.9111,2.9156,2.9197,2.9292,2.935,2.9378,2.9428,2.9505,2.9571,2.9583,2.9611,2.9628,2.964,2.9544,2.9532,2.9521,2.9502,2.9633,2.9633,2.9737,2.9738,2.9739]},{"header":{"parameterUnit":"m.s-1","parameterCategory":1,"la1":30.2991,"la2":30.254,"lo1":-89.0895,"lo2":-89.0444,"dy":0.0017,"dx":0.0017,"nx":28,"ny":28,"refTime":"2023-08-11T03:00:00:Z","depth":0,"parameterNumber":3,"parameterNumberName":"V-component_of_WINDS"},"data":[0,0,0,0,0,0,0,0,0,0,0,0,0,0,0,0,0,0,0,0,0,0,0,0,0,0,0,0,0,0,0,0,0,0,0,0,0,0,0,0,0,0,0,0,0,0,0,0,0,0,0,0,0,0,0,0,0,0,0.7451,0.7451,0,0.7508,0.7508,0.7509,0.7535,0.7535,0.7535,0.7535,0.7593,0.7595,0.7596,0,0,0,0,0,0,0,0,0,0,0,0,0,0.7361,0.7363,0.745,0.7451,0.7452,0.7507,0.7508,0.7509,0.7535,0.7535,0.7535,0.7535,0.7593,0.7595,0.7596,0,0,0,0,0,0,0,0,0,0,0,0,0,0.7407,0.7363,0.745,0.7472,0.7474,0.7507,0.7508,0.7509,0.7535,0.7535,0.7535,0.7535,0.7592,0.7594,0.7597,0.7613,0,0,0.7604,0.7605,0,0,0,0,0,0,0,0,0.7405,0.7411,0.7468,0.747,0.7473,0.7514,0.7498,0.7544,0.7535,0.7512,0.7535,0.7535,0.7567,0.7571,0.7582,0.7616,0.7618,0.7604,0.7606,0.7607,0.7607,0,0,0,0,0,0,0,0.7401,0.7408,0.7473,0.7469,0.7472,0.7477,0.7484,0.7507,0.7539,0.7514,0.7516,0.7523,0.7568,0.758,0.7584,0.7619,0.7604,0.7606,0.7608,0.7609,0.7664,0.7664,0,0,0,0,0,0,0.7395,0.7405,0.7471,0.7475,0.7438,0.7479,0.7486,0.7501,0.7539,0.7545,0.7523,0.7524,0.7576,0.7581,0.7586,0.7605,0.7607,0.7609,0.761,0.7664,0.7664,0.7664,0,0,0,0,0,0,0.7393,0.7401,0.7469,0.7441,0.745,0.7481,0.7497,0.7502,0.7514,0.7545,0.7551,0.7529,0.7576,0.7583,0.7605,0.7607,0.761,0.7612,0.7664,0.7664,0.7664,0.7644,0,0,0,0,0,0,0.739,0.74,0.7407,0.7441,0.7451,0.7488,0.7497,0.7503,0.7518,0.752,0.7553,0.7558,0.7576,0.7601,0.7607,0.7611,0.7614,0.7664,0.7664,0.7664,0.7645,0.7643,0.7642,0,0,0,0,0,0.7387,0.74,0.7408,0.7415,0.7461,0.7488,0.7494,0.7515,0.7518,0.7525,0.7544,0.7557,0.7606,0.7603,0.7611,0.7614,0.7664,0.7664,0.7664,0.7645,0.7644,0.7642,0,0,0,0,0,0,0.7368,0.7405,0.7414,0.7438,0.746,0.7493,0.7502,0.7514,0.7535,0.7536,0.7561,0.7568,0.7587,0.7603,0.76,0.763,0.7636,0.7637,0.7619,0.7618,0.7617,0.7612,0.7616,0,0,0,0,0,0.7366,0.7385,0.7417,0.7435,0.7445,0.7472,0.7484,0.7498,0.7522,0.7531,0.7553,0.7574,0.7594,0.7607,0.7627,0.7647,0.7653,0.7653,0.7651,0.765,0.7651,0.7659,0.7659,0.7664,0.7664,0.7664,0,0,0.7363,0.7386,0.7397,0.7432,0.745,0.7468,0.7479,0.7499,0.7512,0.7534,0.7556,0.7572,0.7598,0.7618,0.7628,0.7631,0.7651,0.765,0.7649,0.7651,0.7659,0.7659,0.7658,0.7664,0.7664,0.7664,0,0,0.7367,0.7387,0.7403,0.742,0.7447,0.7464,0.7467,0.7498,0.7509,0.7531,0.7547,0.7562,0.7597,0.7614,0.7627,0.7632,0.7643,0.7638,0.7632,0.7639,0.7639,0.7639,0.7638,0.7638,0.7639,0.7639,0.7638,0,0.736,0.7389,0.741,0.7427,0.7441,0.746,0.7475,0.7491,0.7523,0.7531,0.7535,0.7576,0.7595,0.7618,0.7619,0.7629,0.7633,0.7634,0.7637,0.7637,0.7637,0.7637,0.7637,0.7638,0.7638,0.7638,0.7638,0,0.7377,0.7396,0.7406,0.7435,0.745,0.7466,0.7488,0.75,0.7512,0.7527,0.7548,0.7571,0.7594,0.7601,0.7613,0.7624,0.7625,0.7633,0.7639,0.7635,0.7636,0.7636,0.7636,0.7637,0.7637,0.7637,0,0,0.7373,0.7411,0.7414,0.7425,0.7455,0.7469,0.7485,0.7507,0.7516,0.7537,0.7549,0.7576,0.7582,0.7596,0.761,0.7617,0.7616,0.7624,0.7624,0.762,0.7627,0.762,0.762,0.7624,0.7624,0.7624,0.7624,0,0.738,0.7409,0.7426,0.7448,0.7464,0.748,0.7494,0.7512,0.7526,0.7541,0.7557,0.7574,0.7582,0.7591,0.7598,0.7615,0.7618,0.7615,0.7634,0.7635,0.7626,0.762,0.7614,0.7613,0.7624,0.7624,0.7624,0,0.7392,0.741,0.7433,0.7457,0.7464,0.7476,0.7496,0.751,0.753,0.754,0.7554,0.7567,0.7582,0.7587,0.7607,0.7604,0.7613,0.7622,0.7622,0.7624,0.7629,0.7621,0.7614,0.7613,0.7625,0.7625,0.7625,0,0.7384,0.7414,0.7431,0.744,0.7469,0.7476,0.7489,0.7509,0.752,0.7537,0.7544,0.7563,0.7573,0.7586,0.7603,0.7605,0.762,0.7627,0.7627,0.7627,0.763,0.7629,0.7623,0.7637,0.7637,0.7637,0.7637,0,0.7389,0.7402,0.7427,0.7437,0.7451,0.747,0.7482,0.7496,0.7513,0.7524,0.754,0.7551,0.7573,0.7586,0.7599,0.7612,0.7617,0.7624,0.7627,0.7622,0.7621,0.7628,0.7628,0.7637,0.7637,0.7637,0.7637,0,0.7382,0.74,0.7419,0.7443,0.7449,0.7458,0.7479,0.7488,0.7502,0.7516,0.7521,0.7542,0.7557,0.7576,0.7598,0.7606,0.7617,0.7623,0.761,0.7612,0.7611,0.761,0.7607,0.7607,0.7622,0.7622,0.7622,0,0.7384,0.7394,0.7418,0.7427,0.7438,0.7452,0.7463,0.7481,0.7491,0.7512,0.7518,0.7535,0.7549,0.7572,0.7589,0.7605,0.761,0.7608,0.7613,0.7606,0.7608,0.7607,0.7607,0.7607,0.7607,0.7606,0.7606,0,0.7385,0.7392,0.7407,0.7423,0.7434,0.7449,0.7464,0.7469,0.749,0.75,0.7516,0.7526,0.7547,0.7562,0.7579,0.7591,0.7601,0.7604,0.7605,0.76,0.7591,0.7594,0.7606,0.7605,0.7605,0.7605,0.7605,0.7605,0.7382,0.7389,0.7407,0.7421,0.7434,0.7446,0.7455,0.7469,0.7482,0.7499,0.7509,0.7523,0.754,0.7564,0.7574,0.7585,0.7589,0.759,0.759,0.759,0.7588,0.759,0.7588,0.7589,0.7589,0.7589,0.7589,0,0.7381,0.7392,0.7405,0.7424,0.7435,0.7442,0.7458,0.7466,0.7479,0.7493,0.7505,0.7521,0.7535,0.7552,0.7566,0.7571,0.7576,0.7574,0.7574,0.7576,0.7585,0.7582,0.757,0.757,0.757,0.757,0.757,0.757,0.7382,0.7395,0.7404,0.7422,0.7433,0.7446,0.7454,0.7465,0.7476,0.7492,0.7503,0.7514,0.7528,0.7543,0.7556,0.756,0.7564,0.756,0.7566,0.7574,0.7576,0.7577,0.7575,0.7562,0.7562,0.7556,0.7556,0.7556]}]]